Powrót do katalogu

GALILEO 9 (205)

LostNawigacjaMEO
NORAD 40889·PAYLOAD·🇪🇺 EU

Wystrzelony Sep 11, 2015 z Guiana Space Centre

Loading…

Następne Przeloty (najbliższe 24 godziny)

TLE

NieaktualneSource: Space-Track

Epoka: May 24, 2026, 07:17 UTC

1 40889U 15045A   26144.30399159 -.00000014  00000-0  00000-0 0  9996
2 40889  54.9357 222.4171 0006406 263.0112  96.9692  1.67409242 66563

Śledź GALILEO 9 (205) w czasie rzeczywistym z AllMySat

Download on the App Store